• Join FlightAware (Why Join?)
  • Login
  • US Flag GB Flag 
03:27 EDT


 

Airport Tracker/Info


-or-


 

Live Flight TrackerFlight Track Log ✈ AAL1554 ✈ 15-Jun-2013 ✈ KSNA - KDFW

Flight Track Log - Related Links

Times and Time Zones

All times are in EDT time to prevent confusion due to time zone crossing. See the AAL1554 flight status page for this flight to view local times or setup timezone preferences in your user account.

Time Position Orientation Groundspeed Altitude Reporting Facility
EDT Latitude Longitude Course Direction KTS MPH feet Rate Location/Type
17:10 33.6333 -117.8833 90° East 167 192 1,700  Level Southern California TRACON
17:10 33.6186 -117.8933 209° Southwest 191 220 2,300 2,160 Climbing Los Angeles Center
17:11 33.5514 -117.8869 175° South 242 278 5,000 2,460 Climbing Los Angeles Center
17:12 33.4929 -117.6396 54° Northeast  Level FlightAware Approximate
17:12 33.4956 -117.8306 140° Southeast 271 312 7,500  Level Los Angeles Center
17:13 33.5511 -117.5083 66° East  Level FlightAware Approximate
17:13 33.5122 -117.7361 78° East 292 336 10,400  Level Los Angeles Center
17:14 33.5833 -117.3668 90° East  Level FlightAware Approximate
17:14 33.5483 -117.6081 71° East 330 380 12,800  Level Los Angeles Center
17:15 33.5833 -117.2173 90° East  Level FlightAware Approximate
17:15 33.5792 -117.4933 72° East 357 411 15,300  Level Los Angeles Center
17:17 33.5883 -117.3686 85° East 379 436 17,500 2,100 Climbing Los Angeles Center
17:18 33.5919 -117.2381 88° East 394 453 19,700 2,040 Climbing Los Angeles Center
17:19 33.5978 -117.1019 87° East 406 467 21,800 1,980 Climbing Los Angeles Center
17:20 33.6019 -116.9597 88° East 425 489 23,800 1,920 Climbing Los Angeles Center
17:21 33.6086 -116.7914 87° East 439 505 25,800 1,620 Climbing Los Angeles Center
17:22 33.6128 -116.6386 88° East 455 524 27,200 1,260 Climbing Los Angeles Center
17:23 33.6189 -116.4808 87° East 469 540 28,500 1,260 Climbing Los Angeles Center
17:24 33.6236 -116.3186 88° East 482 555 29,900 1,260 Climbing Los Angeles Center
17:25 33.6172 -116.1539 93° East 491 565 31,200 1,380 Climbing Los Angeles Center
17:26 33.5958 -115.9900 99° East 492 566 32,800 1,500 Climbing Los Angeles Center
17:27 33.5725 -115.7986 98° East 485 558 34,300 1,200 Climbing Los Angeles Center
17:28 33.5494 -115.6356 100° East 493 567 35,300 840 Climbing Los Angeles Center
17:29 33.5272 -115.4708 99° East 498 573 36,100 780 Climbing Los Angeles Center
17:30 33.5058 -115.3067 99° East 499 574 37,000 360 Climbing Los Angeles Center
17:31 33.4831 -115.1414 99° East 501 577 36,900  Descending Los Angeles Center
17:32 33.4597 -114.9781 100° East 499 574 37,000  Climbing Los Angeles Center
17:33 33.4375 -114.8144 99° East 498 573 37,000 -60 Level Los Angeles Center
17:34 33.4169 -114.6531 99° East 493 567 36,900  Descending Los Angeles Center
17:35 33.3897 -114.4594 100° East 493 567 37,000  Climbing Los Angeles Center
17:36 33.3800 -114.3731 98° East 492 566 37,000  Level Albuquerque Center
17:37 33.3650 -114.2081 96° East 496 571 37,000  Level Albuquerque Center
17:38 33.3500 -114.0450 96° East 495 570 37,000 -60 Level Albuquerque Center
17:39 33.3353 -113.8792 96° East 499 574 36,900  Descending Albuquerque Center
17:40 33.3161 -113.6836 97° East 495 570 37,000  Climbing Albuquerque Center
17:41 33.3014 -113.5203 96° East 495 570 37,000 -60 Level Albuquerque Center
17:42 33.2847 -113.3564 97° East 495 570 36,900  Descending Albuquerque Center
17:43 33.2681 -113.1922 97° East 495 570 37,000  Climbing Albuquerque Center
17:44 33.2528 -113.0297 96° East 493 567 37,000  Level Albuquerque Center
17:45 33.2364 -112.8661 97° East 494 568 37,000  Level Albuquerque Center
17:46 33.2189 -112.7028 97° East 494 568 37,000  Level Albuquerque Center
17:47 33.2192 -112.5283 90° East 496 571 37,000  Level Albuquerque Center
17:48 33.2258 -112.3647 87° East 496 571 37,000  Level Albuquerque Center
17:49 33.2308 -112.2008 88° East 498 573 37,000  Level Albuquerque Center
17:50 33.2342 -112.0364 89° East 499 574 37,000  Level Albuquerque Center
17:51 33.2383 -111.8411 88° East 495 570 37,000  Level Albuquerque Center
17:52 33.2422 -111.6781 88° East 495 570 37,000  Level Albuquerque Center
17:53 33.2467 -111.5158 88° East 494 568 37,000  Level Albuquerque Center
17:54 33.2492 -111.3550 89° East 488 562 37,000  Level Albuquerque Center
17:55 33.2525 -111.1922 89° East 492 566 37,000  Level Albuquerque Center
17:56 33.2564 -111.0289 88° East 494 568 37,000  Level Albuquerque Center
17:57 33.2603 -110.8656 88° East 495 570 37,000  Level Albuquerque Center
17:58 33.2667 -110.6806 88° East 494 568 37,000  Level Albuquerque Center
17:59 33.2717 -110.5186 88° East 492 566 37,000  Level Albuquerque Center
18:00 33.2758 -110.3572 88° East 490 564 37,000  Level Albuquerque Center
18:01 33.2819 -110.1961 87° East 490 564 37,000  Level Albuquerque Center
18:02 33.2986 -110.0350 83° East 492 566 37,000  Level Albuquerque Center
18:03 33.3322 -109.8731 76° East 501 577 37,000  Level Albuquerque Center
18:04 33.3533 -109.6758 83° East 502 578 37,000  Level Albuquerque Center
18:05 33.3561 -109.5100 89° East 504 580 37,000  Level Albuquerque Center
18:06 33.3486 -109.3439 93° East 503 579 37,000  Level Albuquerque Center
18:07 33.3308 -109.1772 97° East 505 581 37,000  Level Albuquerque Center
18:08 33.3117 -109.0125 98° East 502 578 37,000  Level Albuquerque Center
18:09 33.2914 -108.8453 98° East 504 580 37,000  Level Albuquerque Center
18:10 33.2669 -108.6794 100° East 506 582 37,000  Level Albuquerque Center
18:12 33.2317 -108.5189 105° East 501 577 37,000  Level Albuquerque Center
18:13 33.1911 -108.3600 107° East 501 577 37,000  Level Albuquerque Center
18:14 33.1458 -108.1706 106° East 500 575 37,000  Level Albuquerque Center
18:15 33.1158 -108.0281 104° East 498 573 37,000 -60 Level Albuquerque Center
18:16 33.1075 -107.8611 93° East 501 577 36,900  Descending Albuquerque Center
18:17 33.0936 -107.6967 96° East 499 574 37,000  Climbing Albuquerque Center
18:18 33.0778 -107.4981 95° East 499 574 36,900 -60 Descending Albuquerque Center
18:19 33.0656 -107.3342 95° East 495 570 36,900  Level Albuquerque Center
18:20 33.0525 -107.1700 95° East 495 570 37,000  Climbing Albuquerque Center
18:21 33.0386 -107.0075 96° East 493 567 36,900  Descending Albuquerque Center
18:22 33.0253 -106.8425 95° East 495 570 37,000  Climbing Albuquerque Center
18:23 33.0108 -106.6778 96° East 497 572 37,000 -60 Level Albuquerque Center
18:24 32.9978 -106.5150 95° East 495 570 36,900  Descending Albuquerque Center
18:25 32.9836 -106.3517 96° East 494 568 37,000  Climbing Albuquerque Center
18:26 32.9692 -106.1903 96° East 492 566 37,000  Level Albuquerque Center
18:27 32.9544 -106.0281 96° East 491 565 37,000 -60 Level Albuquerque Center
18:28 32.9369 -105.8433 96° East 490 564 36,900  Descending Albuquerque Center
18:29 32.9225 -105.6817 96° East 490 564 37,000  Climbing Albuquerque Center
18:30 32.9103 -105.5219 95° East 488 562 37,000  Level Albuquerque Center
18:31 32.9128 -105.3603 89° East 488 562 37,000  Level Albuquerque Center
18:32 32.9125 -105.1839 90° East 483 556 37,000  Level Albuquerque Center
18:33 32.9144 -105.0253 89° East 482 555 37,000  Level Albuquerque Center
18:34 32.9175 -104.8542 89° East 484 557 37,000  Level Albuquerque Center
18:35 32.9225 -104.6961 88° East 481 554 37,000  Level Albuquerque Center
18:36 32.9356 -104.5364 84° East 486 559 37,000  Level Albuquerque Center
18:37 32.9436 -104.3647 87° East 488 562 37,000  Level Albuquerque Center
18:38 32.9428 -104.2067 90° East 483 556 37,000  Level Albuquerque Center
18:39 32.9347 -104.0358 93° East 487 560 37,000  Level Albuquerque Center
18:40 32.9103 -103.8800 101° East 481 554 37,000  Level Albuquerque Center
18:41 32.8872 -103.7211 100° East 486 559 37,000  Level Albuquerque Center
18:42 32.8650 -103.5719 100° East 482 555 37,000  Level Albuquerque Center
18:43 32.8417 -103.4136 100° East 486 559 37,000  Level Albuquerque Center
18:44 32.8275 -103.3264 101° East 487 560 37,000  Level Fort Worth Center
18:45 32.8014 -103.1689 101° East 487 560 37,000  Level Fort Worth Center
18:46 32.7772 -103.0142 100° East 487 560 37,000  Level Fort Worth Center
18:47 32.7550 -102.8550 99° East 487 560 37,000  Level Fort Worth Center
18:48 32.7336 -102.7178 100° East 487 560 37,000  Level Fort Worth Center
18:49 32.7108 -102.5608 100° East 482 555 37,000  Level Fort Worth Center
18:50 32.6881 -102.4017 100° East 487 560 37,000  Level Fort Worth Center
18:51 32.6586 -102.2494 103° East 482 555 37,000  Level Fort Worth Center
18:52 32.6314 -102.0878 101° East 482 555 37,000  Level Fort Worth Center
18:53 32.6036 -101.9311 102° East 482 555 37,000  Level Fort Worth Center
18:54 32.5800 -101.7744 100° East 477 549 37,000  Level Fort Worth Center
18:55 32.5539 -101.6206 101° East 477 549 37,000  Level Fort Worth Center
18:56 32.5278 -101.4664 101° East 477 549 37,000  Level Fort Worth Center
18:57 32.5014 -101.3125 101° East 472 543 37,000  Level Fort Worth Center
18:58 32.4708 -101.1464 102° East 472 543 37,000  Level Fort Worth Center
18:59 32.4461 -100.9953 101° East 472 543 37,000  Level Fort Worth Center
19:00 32.4192 -100.8392 102° East 472 543 37,000  Level Fort Worth Center
19:01 32.3897 -100.6881 103° East 472 543 37,000  Level Fort Worth Center
19:02 32.3622 -100.5369 102° East 472 543 37,000  Level Fort Worth Center
19:03 32.3347 -100.3858 102° East 472 543 37,000  Level Fort Worth Center
19:04 32.3108 -100.2475 102° East 472 543 37,000  Level Fort Worth Center
19:05 32.2828 -100.0967 102° East 472 543 37,000  Level Fort Worth Center
19:06 32.2567 -99.9461 102° East 472 543 37,000  Level Fort Worth Center
19:07 32.2325 -99.7908 100° East 472 543 37,000  Level Fort Worth Center
19:08 32.2269 -99.6358 92° East 472 543 37,000  Level Fort Worth Center
19:09 32.2214 -99.4786 92° East 467 537 37,000  Level Fort Worth Center
19:10 32.2156 -99.3239 93° East 467 537 37,000  Level Fort Worth Center
19:11 32.2114 -99.1667 92° East 473 544 37,000  Level Fort Worth Center
19:12 32.2053 -99.0117 93° East 473 544 37,000  Level Fort Worth Center
19:13 32.2156 -98.8547 86° East 473 544 37,000 -1,200 Level Fort Worth Center
19:14 32.2506 -98.6933 76° East 468 539 34,600 -2,580 Descending Fort Worth Center
19:15 32.2772 -98.5389 78° East 468 539 31,900 -3,180 Descending Fort Worth Center
19:16 32.3097 -98.3844 76° East 468 539 28,300 -3,300 Descending Fort Worth Center
19:17 32.3381 -98.2297 78° East 468 539 25,400 -3,120 Descending Fort Worth Center
19:18 32.3639 -98.0750 79° East 473 544 22,200 -3,120 Descending Fort Worth Center
19:19 32.3897 -97.9422 77° East 464 534 19,200 -3,300 Descending Fort Worth Center
19:20 32.4172 -97.7875 78° East 442 509 15,600 -3,360 Descending Fort Worth Center
19:21 32.4386 -97.6719 78° East 417 480 12,500 -2,340 Descending Fort Worth Center
19:22 32.4617 -97.5389 78° East 384 442 11,000 -780 Descending Fort Worth Center
19:23 32.5078 -97.4603 55° Northeast 326 375 11,000  Level Fort Worth Center
19:24 32.5744 -97.3814 45° Northeast 308 354 11,000  Level Fort Worth Center
19:24 32.6167 -97.3333 44° Northeast 312 359 11,000  Level Dallas / Fort Worth TRACON
19:25 32.6286 -97.3147 53° Northeast 303 349 11,000  Level Fort Worth Center
19:26 32.6956 -97.2333 46° Northeast 303 349 11,000  Level Fort Worth Center
19:27 32.7497 -97.1739 43° Northeast 303 349 11,000 -300 Level Fort Worth Center
19:28 32.8331 -97.1661 North 271 312 10,500 -840 Descending Fort Worth Center
19:29 32.9103 -97.1636 North 263 303 9,400 -1,200 Descending Fort Worth Center
19:30 32.9814 -97.1658 358° North 273 314 8,200 -1,260 Descending Fort Worth Center
19:31 33.0586 -97.1631 North 254 292 6,900 -1,500 Descending Fort Worth Center
19:32 33.1333 -97.1500 North 254 292 5,400 -1,560 Descending Dallas / Fort Worth TRACON
19:32 33.1333 -97.1000 90° East 231 266 4,200 -1,500 Descending Dallas / Fort Worth TRACON